DW5367 Weather Reports


Display with metric or nautical units.
time (UTC)temp
F
wind
direction
speed
MPH
gust
MPH
rain 1hr
in
rain 24hr
in
rain mn
in
humidity
%
barometer
mb
20260510004600 62 360 0.0 2.0 0.00 0.01 0.01 63 1007.8
20260510003102 62 360 0.0 0.0 0.00 0.01 0.01 62 1007.4
20260510001559 63 360 0.0 1.0 0.00 0.01 0.01 61 1007.3
20260510000058 63 238 0.0 2.0 0.00 0.01 0.01 60 1007.3
20260509234558 64 233 1.0 5.0 0.00 0.01 0.01 58 1007.2
20260509233058 64 288 2.0 7.0 0.00 0.01 0.01 57 1007.3
20260509231603 65 229 2.0 7.0 0.00 0.01 0.01 57 1007.2
20260509230059 65 211 1.0 8.0 0.00 0.01 0.01 55 1006.9
20260509224559 66 213 0.0 4.0 0.00 0.01 0.01 54 1007.2
20260509223054 67 244 2.0 6.0 0.00 0.01 0.01 53 1007.2
20260509221553 65 217 1.0 5.0 0.00 0.01 0.01 57 1007.1
20260509220055 65 223 1.0 4.0 0.00 0.01 0.01 57 1007.2
20260509214558 65 241 1.0 6.0 0.00 0.01 0.01 56 1007.2
20260509213115 65 246 1.0 4.0 0.00 0.01 0.01 56 1007.0
20260509213002 65 252 0.0 4.0 0.00 0.01 0.01 58 1007.0
20260509211553 65 216 1.0 6.0 0.00 0.01 0.01 54 1006.9
20260509204549 67 207 2.0 8.0 0.00 0.01 0.01 52 1006.7
20260509203048 66 205 1.0 7.0 0.00 0.01 0.01 53 1006.7
20260509201546 67 194 0.0 8.0 0.00 0.01 0.01 55 1006.5
20260509200045 68 211 2.0 9.0 0.00 0.01 0.01 49 1006.6
20260509194541 69 256 2.0 8.0 0.00 0.01 0.01 49 1006.9
20260509193042 68 196 1.0 10.0 0.00 0.01 0.01 54 1007.0
20260509191540 67 208 2.0 6.0 0.00 0.01 0.01 54 1007.2
20260509190033 66 171 2.0 8.0 0.00 0.01 0.01 56 1007.4
20260509184538 66 218 3.0 9.0 0.00 0.01 0.01 56 1007.4
20260509183030 65 360 3.0 10.0 0.00 0.01 0.01 58 1007.5
20260509181523 64 360 3.0 9.0 0.00 0.01 0.01 61 1007.6
20260509180020 62 360 2.0 8.0 0.00 0.01 0.01 65 1007.9
20260509174518 61 360 0.0 6.0 0.00 0.01 0.01 66 1008.0
20260509173019 61 360 1.0 6.0 0.00 0.01 0.01 63 1008.5
20260509171515 61 360 1.0 4.0 0.00 0.01 0.01 61 1008.6
20260509170015 61 360 1.0 6.0 0.00 0.01 0.01 62 1008.7
20260509164516 61 360 2.0 6.0 0.00 0.01 0.01 63 1008.6
20260509163016 61 360 3.0 8.0 0.00 0.01 0.01 63 1008.5
20260509161512 61 360 2.0 4.0 0.00 0.01 0.01 63 1008.5
20260509160012 60 360 1.0 8.0 0.00 0.01 0.01 63 1008.5
20260509154509 60 360 1.0 4.0 0.00 0.01 0.01 62 1008.5
20260509153007 60 360 1.0 6.0 0.00 0.01 0.01 63 1008.4
20260509151504 59 360 1.0 8.0 0.00 0.01 0.01 67 1008.3
20260509150100 59 360 2.0 6.0 0.00 0.01 0.01 66 1008.5
20260509144600 58 360 1.0 8.0 0.00 0.01 0.01 70 1008.4
20260509143055 57 360 2.0 6.0 0.00 0.01 0.01 72 1008.5
20260509141549 56 360 2.0 6.0 0.00 0.01 0.01 74 1009.0
20260509140051 56 360 2.0 4.0 0.00 0.01 0.01 75 1009.3
20260509134543 56 360 2.0 6.0 0.00 0.01 0.01 75 1009.8
20260509133039 55 360 2.0 8.0 0.00 0.01 0.01 74 1009.9
20260509131540 55 360 1.0 6.0 0.01 0.01 0.01 75 1009.7
20260509130037 55 360 1.0 6.0 0.01 0.01 0.01 74 1009.6
20260509124636 55 360 0.0 4.0 0.01 0.01 0.01 75 1009.6
20260509123034 54 360 1.0 10.0 0.01 0.01 0.01 74 1009.8
20260509121532 54 360 0.0 5.0 0.00 0.00 0.00 74 1009.8
20260509120037 54 360 1.0 4.0 0.00 0.00 0.00 73 1009.7
20260509114526 54 360 0.0 4.0 0.00 0.00 0.00 73 1009.8
20260509113022 54 360 2.0 9.0 0.00 0.00 0.00 70 1009.8
20260509111520 53 360 1.0 6.0 0.00 0.00 0.00 69 1009.8
20260509110018 53 360 0.0 5.0 0.00 0.00 0.00 69 1009.8
20260509104517 53 360 1.0 4.0 0.00 0.00 0.00 68 1009.9
20260509103015 53 360 0.0 4.0 0.00 0.00 0.00 68 1010.0
20260509101515 53 360 1.0 4.0 0.00 0.00 0.00 67 1010.0
20260509100014 53 360 0.0 2.0 0.00 0.00 0.00 67 1010.1
20260509094513 53 360 1.0 5.0 0.00 0.00 0.00 66 1010.0
20260509093013 53 360 1.0 5.0 0.00 0.00 0.00 65 1010.1
20260509091512 54 360 1.0 6.0 0.00 0.00 0.00 64 1010.2
20260509090010 54 360 0.0 3.0 0.00 0.00 0.00 63 1009.9
20260509084510 53 360 1.0 3.0 0.00 0.00 0.00 62 1010.2
20260509083007 53 360 0.0 4.0 0.00 0.00 0.00 59 1010.3
20260509081506 53 360 1.0 5.0 0.00 0.00 0.00 59 1010.4
20260509080003 53 360 1.0 5.0 0.00 0.00 0.00 56 1010.6
20260509074502 53 360 2.0 5.0 0.00 0.00 0.00 56 1010.7
20260509073138 54 360 1.0 8.0 0.00 0.00 0.00 55 1011.0
20260509071558 54 360 1.0 5.0 0.00 0.00 0.00 54 1011.0
20260509070100 54 360 2.0 8.0 0.00 0.00 0.00 53 1011.1
20260509064554 54 360 0.0 6.0 0.00 0.00 0.00 54 1011.1
20260509063052 54 360 1.0 6.0 0.00 0.00 0.00 54 1011.2
20260509061557 54 360 1.0 6.0 0.00 0.00 0.00 54 1011.3
20260509060100 54 360 2.0 6.0 0.00 0.00 0.00 54 1011.6
20260509054607 54 360 1.0 5.0 0.00 0.00 0.00 55 1011.7
20260509053051 54 360 1.0 8.0 0.00 0.00 0.00 54 1011.8
20260509051547 54 360 1.0 4.0 0.00 0.00 0.00 54 1011.8
20260509050048 54 360 1.0 9.0 0.00 0.00 0.00 54 1011.8
20260509044545 54 360 1.0 3.0 0.00 0.00 0.00 55 1011.7
20260509043047 53 360 1.0 4.0 0.00 0.00 0.00 56 1011.6
20260509041542 54 360 1.0 5.0 0.00 0.00 0.00 55 1011.4
20260509040055 54 360 0.0 3.0 0.00 0.00 0.00 57 1011.5
20260509034547 54 360 2.0 8.0 0.00 0.00 0.00 57 1011.7
20260509033038 54 360 1.0 8.0 0.00 0.00 0.00 58 1011.7
20260509031537 54 360 1.0 2.0 0.00 0.00 0.00 57 1011.8
20260509030037 54 360 0.0 3.0 0.00 0.00 0.00 58 1011.9
20260509024536 55 360 1.0 4.0 0.00 0.00 0.00 57 1011.9
20260509023035 55 360 0.0 2.0 0.00 0.00 0.00 57 1012.1
20260509021538 55 360 0.0 3.0 0.00 0.00 0.00 57 1011.9
20260509020039 55 360 1.0 5.0 0.00 0.00 0.00 58 1011.7
20260509014533 55 360 0.0 2.0 0.00 0.00 0.00 57 1011.6
20260509013034 55 360 0.0 5.0 0.00 0.00 0.00 58 1011.5
20260509011535 55 360 1.0 4.0 0.00 0.00 0.00 57 1011.5
20260509010037 55 360 0.0 0.0 0.00 0.00 0.00 58 1011.6